Regional Weather Roundup
Issued by NWS

Home | Current Version | Previous Version | Graphics & Text | Print | Product List | Glossary On
Versions: 1 2 3 4 5 6 7 8 9 10 11 12 13 14 15 16 17 18 19 20 21 22 23 24 25 26 27 28 29 30 31 32 33 34 35 36 37 38 39 40 41 42 43 44 45 46 47 48 49 50
367
ASUS45 KTFX 090110
RWRMT
MONTANA REGIONAL WEATHER ROUNDUP
NATIONAL WEATHER SERVICE GREAT FALLS MT
600 PM MST THU DEC 08 2016

NOTE: "FAIR" INDICATES FEW OR NO CLOUDS BELOW 12000 FEET WITH NO
SIGNIFICANT WEATHER AND/OR OBSTRUCTIONS TO VISIBILITY.

MTZ001>007-043-090200-
WEST OF THE DIVIDE

CITY           SKY/WX    TMP DP  RH WIND       PRES   REMARKS
KALISPELL        N/A      8  -3  61 N14       30.22F WCI  -8
MISSOULA       MOCLDY    13   5  70 VRB5      30.18F
BUTTE          CLOUDY     6  -1  73 S15       30.04S WCI -12
MULLAN PASS    CLOUDY     0  -3  87 VRB3      29.91F
ANACONDA         N/A     10   0  61 SE5       30.06F
DEER LODGE       N/A      5  -4  66 NW7       30.11S WCI  -7
EUREKA           N/A     -2  -9  71 E6        30.31F WCI -14
HAMILTON         N/A     14   5  67 CALM      30.14S
LIBBY            N/A     12   1  62 CALM      30.27S
RONAN            N/A     13   4  67 CALM      30.21F
$$

MTZ008-052>055-090200-
SOUTHWEST MONTANA

CITY           SKY/WX    TMP DP  RH WIND       PRES   REMARKS
BOZEMAN        CLOUDY     7   0  73 CALM      30.16F
DILLON         CLOUDY     8  -1  66 NE5       30.07S
W YELLOWSTONE  CLOUDY     1  -4  78 W3        30.06R
ENNIS          CLOUDY     5   0  78 NE5       30.10F
THREE FORKS      N/A      7 -50   5 CALM      30.16S
TWIN BRIDGES     N/A      9  -5  53 N9        30.07S WCI  -4
$$

MTZ009-010-012-014-046-048-049-054-090200-
EAST SLOPES AND CENTRAL MONTANA

CITY           SKY/WX    TMP DP  RH WIND       PRES   REMARKS
CUT BANK       CLOUDY    -3  -8  79 E7        30.34S WCI -16
GREAT FALLS    CLOUDY    -6 -10  83 CALM      30.35F
MALMSTROM AFB  CLOUDY    -4  -8  85 E5        30.38S
HELENA         CLOUDY     2  -7  66 NW8       30.28R WCI -12
AUGUSTA        FLURRIES  -4  -9  82 NE2       30.26F
BOWMANS CRNR   CLOUDY    -6 -10  85 N5        30.26F
CHOTEAU          N/A     -2  -6  84 MISG      30.34F
FAIRFIELD      CLOUDY    -2  -8  77 NE6       30.32F WCI -14
POWER          FLURRIES  -6 -11  80 NE5       30.34F
RAYNESFORD     LGT SNOW  -3  -7  82 W5        30.30F
ULM            FLURRIES  -5  -8  84 W7        30.36F WCI -19
$$

MTZ011-013-016-021-045-047-050-051-090200-
NORTH CENTRAL MONTANA

CITY           SKY/WX    TMP DP  RH WIND       PRES   REMARKS
HAVRE          CLOUDY     0  -7  72 NE7       30.50F WCI -13
LEWISTOWN      CLOUDY    -1  -6  79 SE7       30.28F WCI -14
N BAR RANCH      N/A     -4  -9  77 SE7       30.28F WCI -18
CHINOOK          N/A      0  -8  71 CALM      30.53F
DENTON         FLURRIES   0  -4  82 MISG      30.32F
GEYSER         FLURRIES  -2  -6  84 NE6       30.29F WCI -14
GRASS RANGE      N/A     -1  -5  82 NE3       30.30F
JUDITH GAP     MOCLDY    -3  -8  81 S9        30.22F WCI -20
ROY              N/A     -1  -5  84 MISG      30.35F
STANFORD       FLURRIES  -3  -6  87 E7        30.25F WCI -16
WINIFRED         N/A     -2  -5  87 MISG      30.33F
$$

MTZ017>020-022>027-061-062-090200-
NORTHEAST MONTANA

CITY           SKY/WX    TMP DP  RH WIND       PRES   REMARKS
GLASGOW        CLEAR     -4  -9  79 NE7       30.54F WCI -18
JORDAN           N/A     -3  -8  79 E5        30.50S
SIDNEY         CLOUDY    -6 -12  75 N3        30.61F
WOLF POINT     CLOUDY    -5 -12  72 NE5       30.59F
PLENTYWOOD       N/A     -8 -11  84 N5        30.57F
POPLAR           N/A     -2  -9  71 E7        30.60F WCI -16
$$

MTZ028>42-056>058-090200-
SOUTHCENTRAL AND SOUTHEAST MONTANA

CITY           SKY/WX    TMP DP  RH WIND       PRES   REMARKS
BAKER          CLOUDY   -13 -17  82 S3        30.49F
BILLINGS       CLOUDY     6  -2  69 NE6       30.32F WCI  -4
LIVINGSTON     CLOUDY     0  -5  79 E12       30.20S WCI -17
MILES CITY     CLEAR      2  -6  69 NE10      30.49F WCI -14
BIG TIMBER     CLOUDY     3  -2  78 E6        30.26F WCI  -8
FORSYTH          N/A      3  -6  66 E5        30.45F
HARLOWTON      MOCLDY     3  -3  77 SE8       30.25F WCI -10
LAUREL           N/A      5 -10  50 N3        30.26F
ROUNDUP          N/A      4 -10  52 NE7       30.24S WCI  -8
$$

REGIONAL REPORTS...DAKOTAS

CITY           SKY/WX    TMP DP  RH WIND       PRES   REMARKS
WILLISTON      CLOUDY    -8 -14  74 NW3       30.61F
MINOT          CLOUDY     0  -7  72 W12       30.58F WCI -17
DICKINSON      CLOUDY    -9 -14  78 NW10      30.50F WCI -27
BEACH            N/A     -8 -11  84 CALM      30.53F
CROSBY           N/A     -8 -13  77 W8        30.61F WCI -23
TIOGA            N/A     -9 -13  84 W9        30.57S WCI -27
WATFORD CITY     N/A     -9 -15  77 SW6       30.59F WCI -23
BISMARCK       PTCLDY     0  -7  72 W8        30.62F WCI -14
GRAND FORKS    FLURRIES  10   4  76 NW9       30.59S WCI  -3
FARGO          FLURRIES  10   3  73 W16       30.59S WCI  -7
BUFFALO SD       N/A     -4  -9  79 NE8       30.39F WCI -19
RAPID CITY     CLOUDY    -2  -8  76 CALM      30.47F
$$

REGIONAL REPORTS...WYOMING/IDAHO/WASHINGTON

CITY           SKY/WX    TMP DP  RH WIND       PRES   REMARKS
GILLETTE       CLOUDY    -4  -8  83 CALM      30.29F
SHERIDAN       CLOUDY    -3  -9  75 CALM      30.30F
BUFFALO WY     CLOUDY     1  -6  72 SE7       30.21F WCI -12
CODY           CLOUDY    -5 -10  79 S5        30.17F
YELLOWSTONE LA   N/A      0  -3  87 W3        30.01F
IDAHO FALLS    LGT SNOW  17  13  84 N8        30.14F FOG     WCI   7
SALMON         CLOUDY    12   3  67 CALM      30.13F
BOISE          LGT SNOW  25  22  88 SE9       30.08F FOG     WCI  15
SPOKANE        CLOUDY    20   5  52 NE12      30.11F WCI   8
$$

REGIONAL REPORTS...ALBERTA

CITY           SKY/WX    TMP DP  RH WIND       PRES   REMARKS
EDMONTON       CLOUDY    -8 -15  71 NE3       30.58F
CALGARY        MOCLDY    -6 -11  77 SE6       30.38F WCI -18
LETHBRIDGE     FLURRIES  -6  -9  84 S3        30.46F
MEDICINE HAT   PTCLDY   -11 -15  84 S3        30.55F
WATERTON GATE    N/A     -8 -13  77 N5          N/A
CARDSTON         N/A    -11 -18  70 SW3         N/A
MILK RIVER       N/A     -6  -9  84 NE5         N/A
ONEFOUR          N/A     -4  -9  77 N3          N/A
$$

REGIONAL REPORTS...SASKATCHEWAN

CITY           SKY/WX    TMP DP  RH WIND       PRES   REMARKS
SWIFT CURRENT  FLURRIES  -8 -11  84 W5        30.50F
REGINA         PTCLDY    -8 -13  77 NW8       30.58F WCI -23
SASKATOON      CRYSTALS  -9 -17  70 NW7       30.66F WCI -24
VAL MARIE        N/A    -17 -24  70 E2          N/A
ROCKGLEN         N/A     -8 -11  84 NW5         N/A
ASSINIBOIA       N/A     -4  -9  77 NE2         N/A
$$




USA.gov is the U.S. government's official web portal to all federal, state and local government web resources and services.